TimePDT,TemperatureF,Dew PointF,Humidity,Sea Level PressureIn,VisibilityMPH,Wind Direction,Wind SpeedMPH,Gust SpeedMPH,PrecipitationIn,Events,Conditions,WindDirDegrees,DateUTC
12:52 AM,61.0,57.0,87,29.64,10.0,WSW,4.6,-,0.02,Rain,Light Rain,240,2013-06-24 07:52:00
1:52 AM,60.1,57.9,93,29.62,10.0,SE,6.9,-,0.01,,Overcast,130,2013-06-24 08:52:00
2:52 AM,60.1,57.0,90,29.61,10.0,ESE,3.5,-,N/A,,Overcast,110,2013-06-24 09:52:00
3:52 AM,57.9,57.0,97,29.61,10.0,ESE,3.5,-,N/A,,Partly Cloudy,120,2013-06-24 10:52:00
4:52 AM,57.0,55.9,96,29.61,10.0,SE,6.9,-,0.01,,Partly Cloudy,140,2013-06-24 11:52:00
5:52 AM,57.9,57.0,97,29.60,10.0,SSE,5.8,-,N/A,,Clear,160,2013-06-24 12:52:00
6:52 AM,60.1,57.9,93,29.60,10.0,SSE,9.2,-,N/A,,Mostly Cloudy,150,2013-06-24 13:52:00
7:07 AM,60.8,57.2,88,29.62,10.0,South,10.4,-,N/A,,Mostly Cloudy,170,2013-06-24 14:07:00
7:25 AM,60.8,57.2,88,29.62,10.0,South,8.1,-,N/A,,Mostly Cloudy,180,2013-06-24 14:25:00
7:52 AM,62.1,57.9,86,29.61,10.0,South,9.2,-,N/A,,Overcast,170,2013-06-24 14:52:00
8:52 AM,62.1,57.9,86,29.62,10.0,South,8.1,-,0.00,,Overcast,190,2013-06-24 15:52:00
8:59 AM,62.6,57.2,82,29.63,10.0,South,9.2,-,N/A,,Overcast,180,2013-06-24 15:59:00
9:22 AM,62.6,57.2,82,29.63,10.0,SSW,6.9,-,0.00,Rain,Light Rain,200,2013-06-24 16:22:00
9:42 AM,62.6,59.0,88,29.63,10.0,South,6.9,-,0.00,,Overcast,180,2013-06-24 16:42:00
9:52 AM,64.0,57.9,80,29.62,10.0,SW,5.8,-,0.00,,Overcast,220,2013-06-24 16:52:00
10:19 AM,64.4,57.2,77,29.63,10.0,South,9.2,-,N/A,,Overcast,190,2013-06-24 17:19:00
10:38 AM,62.6,59.0,88,29.63,10.0,South,8.1,-,0.00,Rain,Light Rain,180,2013-06-24 17:38:00
10:52 AM,64.0,59.0,84,29.63,10.0,South,9.2,-,0.01,Rain,Light Rain,190,2013-06-24 17:52:00
11:47 AM,64.4,59.0,83,29.64,10.0,South,8.1,-,0.01,Rain,Light Rain,180,2013-06-24 18:47:00
11:52 AM,64.0,59.0,84,29.63,10.0,South,8.1,-,0.01,Rain,Light Rain,190,2013-06-24 18:52:00
12:12 PM,64.4,59.0,83,29.64,10.0,South,6.9,-,0.00,,Mostly Cloudy,190,2013-06-24 19:12:00
12:35 PM,64.4,57.2,77,29.64,10.0,South,10.4,-,0.00,,Scattered Clouds,180,2013-06-24 19:35:00
12:52 PM,66.0,57.9,75,29.63,10.0,SSE,10.4,-,0.00,,Mostly Cloudy,160,2013-06-24 19:52:00
1:52 PM,68.0,57.0,68,29.62,10.0,South,8.1,-,N/A,,Partly Cloudy,170,2013-06-24 20:52:00
2:15 PM,68.0,57.2,68,29.63,10.0,South,9.2,-,N/A,,Mostly Cloudy,180,2013-06-24 21:15:00
2:29 PM,68.0,55.4,64,29.63,10.0,South,9.2,-,N/A,,Mostly Cloudy,190,2013-06-24 21:29:00
2:52 PM,68.0,54.0,61,29.63,10.0,South,9.2,-,N/A,,Overcast,190,2013-06-24 21:52:00
3:52 PM,69.1,48.9,49,29.63,10.0,South,12.7,-,N/A,,Overcast,190,2013-06-24 22:52:00
4:52 PM,68.0,48.0,49,29.64,10.0,SW,15.0,-,N/A,,Overcast,220,2013-06-24 23:52:00
5:52 PM,66.0,48.0,52,29.65,10.0,South,10.4,-,N/A,,Overcast,190,2013-06-25 00:52:00
6:52 PM,66.9,48.0,51,29.65,10.0,South,9.2,-,N/A,,Overcast,190,2013-06-25 01:52:00
7:52 PM,64.0,52.0,65,29.66,10.0,SSE,11.5,-,N/A,,Overcast,160,2013-06-25 02:52:00
8:52 PM,62.1,52.0,70,29.67,10.0,SSE,11.5,-,N/A,,Overcast,160,2013-06-25 03:52:00
9:52 PM,60.1,52.0,75,29.69,10.0,South,11.5,-,N/A,,Mostly Cloudy,170,2013-06-25 04:52:00
10:52 PM,57.9,53.1,84,29.70,10.0,SSE,8.1,-,N/A,,Scattered Clouds,150,2013-06-25 05:52:00
11:52 PM,57.0,53.1,87,29.70,10.0,SSE,8.1,-,N/A,,Scattered Clouds,160,2013-06-25 06:52:00